| time (UTC) | temp C | wind direction | speed KPH | gust KPH | rain 1hr cm | rain 24hr cm | rain mn cm | humidity % | barometer mb |
| 20260510140221 | 12 | 0.0 | 3.2 | 0.00 | 0.00 | 0.00 | 67 | 1016.3 | |
| 20260510135735 | 12 | 3.2 | 6.4 | 0.00 | 0.00 | 0.00 | 66 | 1016.3 | |
| 20260510135219 | 12 | 4.8 | 12.9 | 0.00 | 0.00 | 0.00 | 65 | 1016.4 | |
| 20260510134734 | 12 | 4.8 | 11.3 | 0.00 | 0.00 | 0.00 | 65 | 1016.3 | |
| 20260510134239 | 12 | 8.0 | 20.9 | 0.00 | 0.00 | 0.00 | 65 | 1016.3 | |
| 20260510133733 | 12 | 6.4 | 14.5 | 0.00 | 0.00 | 0.00 | 65 | 1016.3 | |
| 20260510133230 | 12 | 6.4 | 9.7 | 0.00 | 0.00 | 0.00 | 66 | 1016.4 | |
| 20260510132729 | 12 | 3.2 | 12.9 | 0.00 | 0.00 | 0.00 | 66 | 1016.5 | |
| 20260510132229 | 12 | 3.2 | 11.3 | 0.00 | 0.00 | 0.00 | 66 | 1016.4 | |
| 20260510131728 | 12 | 8.0 | 14.5 | 0.00 | 0.00 | 0.00 | 66 | 1016.3 | |
| 20260510131158 | 12 | 6.4 | 12.9 | 0.00 | 0.00 | 0.00 | 67 | 1016.5 | |
| 20260510130616 | 12 | 0.0 | 3.2 | 0.00 | 0.00 | 0.00 | 67 | 1016.6 | |
| 20260510130046 | 12 | 4.8 | 16.1 | 0.00 | 0.00 | 0.00 | 67 | 1016.8 | |
| 20260510125500 | 12 | 8.0 | 17.7 | 0.00 | 0.00 | 0.00 | 67 | 1016.7 | |
| 20260510124930 | 12 | 3.2 | 6.4 | 0.00 | 0.00 | 0.00 | 67 | 1016.7 | |
| 20260510124354 | 12 | 1.6 | 3.2 | 0.00 | 0.00 | 0.00 | 65 | 1016.9 | |
| 20260510123824 | 12 | 8.0 | 17.7 | 0.00 | 0.00 | 0.00 | 64 | 1016.8 | |
| 20260510123243 | 13 | 4.8 | 12.9 | 0.00 | 0.00 | 0.00 | 64 | 1016.8 | |
| 20260510122732 | 13 | 9.7 | 17.7 | 0.00 | 0.00 | 0.00 | 62 | 1017.1 | |
| 20260510122232 | 13 | 8.0 | 14.5 | 0.00 | 0.00 | 0.00 | 63 | 1017.2 | |
| 20260510121730 | 13 | 3.2 | 14.5 | 0.00 | 0.00 | 0.00 | 63 | 1017.1 | |
| 20260510121230 | 13 | 4.8 | 11.3 | 0.00 | 0.00 | 0.00 | 64 | 1017.0 | |
| 20260510120729 | 13 | 9.7 | 16.1 | 0.00 | 0.00 | 0.00 | 64 | 1016.9 | |
| 20260510120229 | 13 | 6.4 | 9.7 | 0.00 | 0.00 | 0.00 | 64 | 1017.2 | |
| 20260510115729 | 13 | 9.7 | 17.7 | 0.00 | 0.00 | 0.00 | 63 | 1017.0 | |
| 20260510115157 | 13 | 1.6 | 14.5 | 0.00 | 0.00 | 0.00 | 63 | 1017.0 | |
| 20260510114611 | 13 | 6.4 | 16.1 | 0.00 | 0.00 | 0.00 | 63 | 1017.1 | |
| 20260510114039 | 13 | 11.3 | 16.1 | 0.00 | 0.00 | 0.00 | 63 | 1017.1 | |
| 20260510113509 | 13 | 6.4 | 14.5 | 0.00 | 0.00 | 0.00 | 63 | 1017.2 | |
| 20260510112923 | 13 | 3.2 | 12.9 | 0.00 | 0.00 | 0.00 | 65 | 1017.1 | |
| 20260510112353 | 13 | 9.7 | 22.5 | 0.00 | 0.00 | 0.00 | 65 | 1017.3 | |
| 20260510111807 | 13 | 4.8 | 9.7 | 0.00 | 0.00 | 0.00 | 65 | 1017.5 | |
| 20260510111238 | 13 | 6.4 | 12.9 | 0.00 | 0.00 | 0.00 | 65 | 1017.4 | |
| 20260510110700 | 13 | 6.4 | 12.9 | 0.00 | 0.00 | 0.00 | 65 | 1017.6 | |
| 20260510110129 | 13 | 9.7 | 20.9 | 0.00 | 0.00 | 0.00 | 65 | 1017.4 | |
| 20260510105544 | 13 | 6.4 | 11.3 | 0.00 | 0.00 | 0.00 | 66 | 1017.3 | |
| 20260510105013 | 13 | 3.2 | 6.4 | 0.00 | 0.00 | 0.00 | 66 | 1017.6 | |
| 20260510104442 | 13 | 11.3 | 20.9 | 0.00 | 0.00 | 0.00 | 66 | 1017.5 | |
| 20260510103902 | 13 | 4.8 | 11.3 | 0.00 | 0.00 | 0.00 | 67 | 1017.8 | |
| 20260510103231 | 12 | 3.2 | 6.4 | 0.00 | 0.00 | 0.00 | 67 | 1017.7 | |
| 20260510102730 | 12 | 4.8 | 11.3 | 0.00 | 0.00 | 0.00 | 68 | 1017.5 | |
| 20260510102230 | 12 | 3.2 | 6.4 | 0.00 | 0.00 | 0.00 | 68 | 1017.5 | |
| 20260510101728 | 12 | 6.4 | 9.7 | 0.00 | 0.00 | 0.00 | 68 | 1017.5 | |
| 20260510101156 | 12 | 4.8 | 12.9 | 0.00 | 0.00 | 0.00 | 68 | 1017.5 | |
| 20260510100611 | 12 | 4.8 | 12.9 | 0.00 | 0.00 | 0.00 | 68 | 1017.6 | |
| 20260510100054 | 12 | 4.8 | 12.9 | 0.00 | 0.00 | 0.00 | 68 | 1017.4 | |
| 20260510095506 | 12 | 6.4 | 11.3 | 0.00 | 0.00 | 0.00 | 68 | 1017.5 | |
| 20260510094934 | 12 | 12.9 | 20.9 | 0.00 | 0.00 | 0.00 | 68 | 1017.4 | |
| 20260510094400 | 12 | 6.4 | 11.3 | 0.00 | 0.00 | 0.00 | 68 | 1017.5 | |
| 20260510093824 | 12 | 3.2 | 8.0 | 0.00 | 0.00 | 0.00 | 68 | 1017.5 | |
| 20260510093233 | 12 | 8.0 | 17.7 | 0.00 | 0.00 | 0.00 | 68 | 1017.6 | |
| 20260510092733 | 12 | 9.7 | 17.7 | 0.00 | 0.00 | 0.00 | 68 | 1017.7 | |
| 20260510092232 | 12 | 9.7 | 20.9 | 0.00 | 0.00 | 0.00 | 69 | 1017.7 | |
| 20260510091732 | 12 | 14.5 | 22.5 | 0.00 | 0.00 | 0.00 | 69 | 1017.5 | |
| 20260510091203 | 12 | 4.8 | 12.9 | 0.00 | 0.00 | 0.00 | 70 | 1017.5 | |
| 20260510090608 | 12 | 9.7 | 17.7 | 0.00 | 0.00 | 0.00 | 71 | 1017.7 | |
| 20260510090053 | 11 | 12.9 | 17.7 | 0.00 | 0.00 | 0.00 | 71 | 1017.9 | |
| 20260510085506 | 11 | 6.4 | 12.9 | 0.00 | 0.00 | 0.00 | 71 | 1017.6 | |
| 20260510084936 | 11 | 3.2 | 11.3 | 0.00 | 0.00 | 0.00 | 72 | 1017.8 | |
| 20260510084355 | 11 | 3.2 | 6.4 | 0.00 | 0.00 | 0.00 | 73 | 1018.0 | |
| 20260510083829 | 11 | 6.4 | 17.7 | 0.00 | 0.00 | 0.00 | 73 | 1018.0 | |
| 20260510083248 | 11 | 12.9 | 22.5 | 0.00 | 0.00 | 0.00 | 73 | 1017.9 | |
| 20260510082731 | 11 | 1.6 | 6.4 | 0.00 | 0.00 | 0.00 | 73 | 1018.1 | |
| 20260510082231 | 11 | 6.4 | 17.7 | 0.00 | 0.00 | 0.00 | 74 | 1017.9 | |
| 20260510081724 | 11 | 8.0 | 12.9 | 0.00 | 0.00 | 0.00 | 74 | 1018.0 | |
| 20260510081237 | 11 | 4.8 | 9.7 | 0.00 | 0.00 | 0.00 | 75 | 1017.9 | |
| 20260510080742 | 11 | 6.4 | 16.1 | 0.00 | 0.00 | 0.00 | 75 | 1018.1 | |
| 20260510080233 | 11 | 3.2 | 6.4 | 0.00 | 0.00 | 0.00 | 75 | 1018.0 | |
| 20260510075722 | 11 | 6.4 | 12.9 | 0.00 | 0.00 | 0.00 | 76 | 1018.0 | |
| 20260510075222 | 11 | 4.8 | 11.3 | 0.00 | 0.00 | 0.00 | 76 | 1018.0 | |
| 20260510074721 | 11 | 4.8 | 16.1 | 0.00 | 0.00 | 0.00 | 77 | 1018.0 | |
| 20260510074220 | 11 | 3.2 | 6.4 | 0.00 | 0.00 | 0.00 | 77 | 1018.0 | |
| 20260510073720 | 11 | 3.2 | 12.9 | 0.00 | 0.00 | 0.00 | 77 | 1018.1 | |
| 20260510073220 | 11 | 6.4 | 12.9 | 0.00 | 0.00 | 0.00 | 77 | 1017.9 | |
| 20260510072720 | 10 | 3.2 | 8.0 | 0.00 | 0.00 | 0.00 | 77 | 1018.0 | |
| 20260510072219 | 10 | 6.4 | 16.1 | 0.00 | 0.00 | 0.00 | 78 | 1018.0 | |
| 20260510071719 | 10 | 9.7 | 17.7 | 0.00 | 0.00 | 0.00 | 79 | 1018.0 | |
| 20260510071218 | 10 | 3.2 | 6.4 | 0.00 | 0.00 | 0.00 | 79 | 1017.9 | |
| 20260510070922 | 10 | 6.4 | 14.5 | 0.00 | 0.00 | 0.00 | 79 | 1018.0 | |
| 20260510070352 | 10 | 6.4 | 14.5 | 0.00 | 0.00 | 0.00 | 80 | 1017.9 | |
| 20260510065821 | 10 | 8.0 | 12.9 | 0.00 | 0.00 | 0.00 | 80 | 1017.9 | |
| 20260510065231 | 10 | 4.8 | 12.9 | 0.00 | 0.00 | 0.00 | 80 | 1018.0 | |
| 20260510064700 | 10 | 3.2 | 8.0 | 0.00 | 0.00 | 0.00 | 81 | 1018.1 | |
| 20260510064144 | 10 | 1.6 | 4.8 | 0.00 | 0.00 | 0.00 | 81 | 1018.0 | |
| 20260510063544 | 10 | 6.4 | 9.7 | 0.00 | 0.00 | 0.00 | 81 | 1018.0 | |
| 20260510063013 | 10 | 6.4 | 14.5 | 0.00 | 0.00 | 0.00 | 81 | 1018.0 | |
| 20260510062443 | 10 | 3.2 | 16.1 | 0.00 | 0.00 | 0.00 | 82 | 1017.9 | |
| 20260510061911 | 10 | 3.2 | 9.7 | 0.00 | 0.00 | 0.00 | 82 | 1017.7 | |
| 20260510061335 | 10 | 3.2 | 8.0 | 0.00 | 0.00 | 0.00 | 81 | 1017.8 | |
| 20260510060624 | 10 | 6.4 | 12.9 | 0.00 | 0.00 | 0.00 | 82 | 1017.9 | |
| 20260510060023 | 10 | 4.8 | 9.7 | 0.00 | 0.00 | 0.00 | 82 | 1017.8 | |
| 20260510055200 | 10 | 4.8 | 9.7 | 0.00 | 0.00 | 0.00 | 83 | 1017.6 | |
| 20260510054347 | 10 | 4.8 | 9.7 | 0.00 | 0.00 | 0.00 | 83 | 1017.7 | |
| 20260510053830 | 10 | 3.2 | 8.0 | 0.00 | 0.00 | 0.00 | 83 | 1017.6 | |
| 20260510053214 | 10 | 4.8 | 11.3 | 0.00 | 0.00 | 0.00 | 84 | 1017.5 | |
| 20260510052618 | 9 | 0.0 | 1.6 | 0.00 | 0.00 | 0.00 | 85 | 1017.5 | |
| 20260510052114 | 9 | 6.4 | 8.0 | 0.00 | 0.00 | 0.00 | 85 | 1017.6 | |
| 20260510051402 | 9 | 4.8 | 17.7 | 0.00 | 0.00 | 0.00 | 85 | 1017.5 | |
| 20260510050605 | 9 | 3.2 | 6.4 | 0.00 | 0.00 | 0.00 | 86 | 1017.6 | |
| 20260510045747 | 9 | 1.6 | 3.2 | 0.00 | 0.00 | 0.00 | 86 | 1017.5 | |
| 20260510045231 | 9 | 4.8 | 9.7 | 0.00 | 0.00 | 0.00 | 86 | 1017.6 | |
| 20260510044744 | 9 | 3.2 | 16.1 | 0.00 | 0.00 | 0.00 | 86 | 1017.7 | |
| 20260510044213 | 9 | 6.4 | 11.3 | 0.00 | 0.00 | 0.00 | 87 | 1017.5 | |
| 20260510043655 | 9 | 1.6 | 3.2 | 0.00 | 0.00 | 0.00 | 87 | 1017.6 | |
| 20260510043122 | 9 | 4.8 | 8.0 | 0.00 | 0.00 | 0.00 | 87 | 1017.7 | |
| 20260510042546 | 9 | 3.2 | 6.4 | 0.00 | 0.00 | 0.00 | 86 | 1017.5 | |
| 20260510041902 | 9 | 4.8 | 11.3 | 0.00 | 0.00 | 0.00 | 86 | 1017.8 | |
| 20260510041402 | 9 | 4.8 | 6.4 | 0.00 | 0.00 | 0.00 | 86 | 1017.6 | |
| 20260510040832 | 9 | 3.2 | 11.3 | 0.00 | 0.00 | 0.00 | 86 | 1017.6 | |
| 20260510040225 | 9 | 1.6 | 8.0 | 0.00 | 0.00 | 0.00 | 86 | 1017.6 | |
| 20260510035734 | 9 | 4.8 | 12.9 | 0.00 | 0.00 | 0.00 | 86 | 1017.8 | |
| 20260510035227 | 9 | 3.2 | 4.8 | 0.00 | 0.00 | 0.00 | 86 | 1017.6 | |
| 20260510034725 | 9 | 3.2 | 11.3 | 0.00 | 0.00 | 0.00 | 86 | 1017.7 | |
| 20260510034222 | 9 | 3.2 | 6.4 | 0.00 | 0.00 | 0.00 | 86 | 1017.8 | |
| 20260510033650 | 9 | 1.6 | 6.4 | 0.00 | 0.00 | 0.00 | 86 | 1018.0 | |
| 20260510032933 | 9 | 3.2 | 4.8 | 0.00 | 0.00 | 0.00 | 86 | 1018.0 | |
| 20260510032352 | 9 | 3.2 | 8.0 | 0.00 | 0.00 | 0.00 | 86 | 1018.2 | |
| 20260510031822 | 9 | 4.8 | 9.7 | 0.00 | 0.00 | 0.00 | 85 | 1018.0 | |
| 20260510031231 | 9 | 3.2 | 9.7 | 0.00 | 0.00 | 0.00 | 85 | 1017.9 | |
| 20260510030729 | 9 | 3.2 | 6.4 | 0.00 | 0.00 | 0.00 | 85 | 1018.0 | |
| 20260510030229 | 9 | 1.6 | 3.2 | 0.00 | 0.00 | 0.00 | 85 | 1018.0 | |
| 20260510025455 | 9 | 3.2 | 8.0 | 0.00 | 0.00 | 0.00 | 85 | 1018.2 | |
| 20260510024518 | 9 | 3.2 | 6.4 | 0.00 | 0.00 | 0.00 | 84 | 1018.2 | |
| 20260510023721 | 9 | 4.8 | 6.4 | 0.00 | 0.00 | 0.00 | 83 | 1018.0 | |
| 20260510023234 | 9 | 3.2 | 6.4 | 0.00 | 0.00 | 0.00 | 82 | 1018.1 | |
| 20260510022713 | 9 | 4.8 | 12.9 | 0.00 | 0.00 | 0.00 | 82 | 1018.3 | |
| 20260510021819 | 10 | 4.8 | 11.3 | 0.00 | 0.00 | 0.00 | 79 | 1018.1 | |
| 20260510021238 | 10 | 3.2 | 6.4 | 0.00 | 0.00 | 0.00 | 78 | 1018.0 | |
| 20260510020747 | 10 | 4.8 | 14.5 | 0.00 | 0.00 | 0.00 | 77 | 1017.9 | |
| 20260510020311 | 10 | 6.4 | 14.5 | 0.00 | 0.00 | 0.00 | 77 | 1018.1 | |
| 20260510015506 | 10 | 6.4 | 12.9 | 0.00 | 0.00 | 0.00 | 76 | 1017.8 | |
| 20260510015002 | 10 | 6.4 | 14.5 | 0.00 | 0.00 | 0.00 | 75 | 1017.9 | |
| 20260510014245 | 10 | 8.0 | 12.9 | 0.00 | 0.00 | 0.00 | 75 | 1018.0 | |
| 20260510013732 | 10 | 4.8 | 14.5 | 0.00 | 0.00 | 0.00 | 75 | 1018.0 | |
| 20260510012931 | 10 | 9.7 | 17.7 | 0.00 | 0.00 | 0.00 | 75 | 1018.2 | |
| 20260510012359 | 10 | 6.4 | 9.7 | 0.00 | 0.00 | 0.00 | 75 | 1018.2 | |
| 20260510011854 | 10 | 1.6 | 3.2 | 0.00 | 0.00 | 0.00 | 74 | 1018.2 | |
| 20260510011229 | 10 | 3.2 | 4.8 | 0.00 | 0.00 | 0.00 | 74 | 1018.2 | |
| 20260510010803 | 10 | 4.8 | 6.4 | 0.00 | 0.00 | 0.00 | 73 | 1018.1 | |
| 20260510010231 | 10 | 3.2 | 4.8 | 0.00 | 0.00 | 0.00 | 73 | 1018.2 | |
| 20260510005722 | 10 | 3.2 | 6.4 | 0.00 | 0.00 | 0.00 | 73 | 1018.1 | |
| 20260510005234 | 10 | 3.2 | 9.7 | 0.00 | 0.00 | 0.00 | 72 | 1018.1 | |
| 20260510004743 | 10 | 1.6 | 4.8 | 0.00 | 0.00 | 0.00 | 71 | 1018.2 | |
| 20260510004242 | 10 | 3.2 | 3.2 | 0.00 | 0.00 | 0.00 | 70 | 1018.1 | |
| 20260510003731 | 10 | 3.2 | 6.4 | 0.00 | 0.00 | 0.00 | 69 | 1018.0 | |
| 20260510003231 | 10 | 3.2 | 6.4 | 0.00 | 0.00 | 0.00 | 68 | 1017.8 | |
| 20260510002720 | 11 | 3.2 | 6.4 | 0.00 | 0.00 | 0.00 | 67 | 1018.0 | |
| 20260510002234 | 11 | 3.2 | 9.7 | 0.00 | 0.00 | 0.00 | 67 | 1017.9 | |
| 20260510001744 | 11 | 3.2 | 6.4 | 0.00 | 0.00 | 0.00 | 66 | 1018.3 | |
| 20260510001230 | 11 | 3.2 | 3.2 | 0.00 | 0.00 | 0.00 | 66 | 1018.3 | |
| 20260510000719 | 11 | 3.2 | 8.0 | 0.00 | 0.00 | 0.00 | 65 | 1018.3 | |
| 20260510000219 | 11 | 0.0 | 1.6 | 0.00 | 0.00 | 0.00 | 65 | 1018.1 | |
| 20260509235648 | 11 | 3.2 | 9.7 | 0.00 | 0.00 | 0.00 | 65 | 1018.1 | |
| 20260509235122 | 11 | 6.4 | 12.9 | 0.00 | 0.00 | 0.00 | 66 | 1018.0 | |
| 20260509234547 | 11 | 3.2 | 8.0 | 0.00 | 0.00 | 0.00 | 66 | 1017.9 | |
| 20260509233949 | 11 | 1.6 | 3.2 | 0.00 | 0.00 | 0.00 | 66 | 1018.0 | |
| 20260509233207 | 11 | 0.0 | 3.2 | 0.00 | 0.00 | 0.00 | 66 | 1018.0 | |
| 20260509232623 | 11 | 0.0 | 1.6 | 0.00 | 0.00 | 0.00 | 65 | 1018.1 | |
| 20260509232056 | 11 | 3.2 | 6.4 | 0.00 | 0.00 | 0.00 | 64 | 1018.1 | |
| 20260509231243 | 11 | 1.6 | 3.2 | 0.00 | 0.00 | 0.00 | 64 | 1018.3 | |
| 20260509230717 | 11 | 4.8 | 9.7 | 0.00 | 0.00 | 0.00 | 63 | 1018.0 | |
| 20260509230217 | 11 | 3.2 | 6.4 | 0.00 | 0.00 | 0.00 | 62 | 1018.1 | |
| 20260509225054 | 12 | 3.2 | 8.0 | 0.00 | 0.00 | 0.00 | 62 | 1018.1 | |
| 20260509224554 | 12 | 1.6 | 6.4 | 0.00 | 0.00 | 0.00 | 61 | 1018.0 | |
| 20260509223608 | 12 | 0.0 | 1.6 | 0.00 | 0.00 | 0.00 | 60 | 1017.9 | |
| 20260509223032 | 12 | 3.2 | 6.4 | 0.00 | 0.00 | 0.00 | 59 | 1018.0 | |
| 20260509221940 | 12 | 1.6 | 4.8 | 0.00 | 0.00 | 0.00 | 57 | 1018.0 | |
| 20260509221322 | 12 | 1.6 | 3.2 | 0.00 | 0.00 | 0.00 | 57 | 1018.1 | |
| 20260509220837 | 12 | 3.2 | 11.3 | 0.00 | 0.00 | 0.00 | 56 | 1018.1 | |
| 20260509220225 | 12 | 4.8 | 8.0 | 0.00 | 0.00 | 0.00 | 56 | 1018.1 | |
| 20260509215653 | 12 | 0.0 | 0.0 | 0.00 | 0.00 | 0.00 | 56 | 1018.0 | |
| 20260509215053 | 11 | 3.2 | 6.4 | 0.00 | 0.00 | 0.00 | 56 | 1018.1 | |
| 20260509214246 | 12 | 1.6 | 3.2 | 0.00 | 0.00 | 0.00 | 55 | 1018.1 | |
| 20260509213644 | 12 | 1.6 | 3.2 | 0.00 | 0.00 | 0.00 | 54 | 1018.2 | |
| 20260509213059 | 12 | 0.0 | 0.0 | 0.00 | 0.00 | 0.00 | 53 | 1018.2 | |
| 20260509212528 | 12 | 0.0 | 0.0 | 0.00 | 0.00 | 0.00 | 53 | 1018.2 | |
| 20260509211958 | 12 | 0.0 | 1.6 | 0.00 | 0.00 | 0.00 | 52 | 1018.0 | |
| 20260509211422 | 12 | 0.0 | 1.6 | 0.00 | 0.00 | 0.00 | 52 | 1017.8 | |
| 20260509210059 | 13 | 0.0 | 3.2 | 0.00 | 0.00 | 0.00 | 49 | 1017.8 | |
| 20260509205511 | 13 | 3.2 | 6.4 | 0.00 | 0.00 | 0.00 | 49 | 1017.7 | |
| 20260509204936 | 13 | 1.6 | 4.8 | 0.00 | 0.00 | 0.00 | 48 | 1017.7 | |
| 20260509204342 | 13 | 1.6 | 6.4 | 0.00 | 0.00 | 0.00 | 48 | 1017.8 | |
| 20260509203829 | 13 | 0.0 | 3.2 | 0.00 | 0.00 | 0.00 | 47 | 1017.7 | |
| 20260509203248 | 13 | 3.2 | 6.4 | 0.00 | 0.00 | 0.00 | 47 | 1017.7 | |
| 20260509202527 | 13 | 0.0 | 3.2 | 0.00 | 0.00 | 0.00 | 46 | 1017.8 | |
| 20260509201952 | 13 | 0.0 | 1.6 | 0.00 | 0.00 | 0.00 | 45 | 1017.6 | |
| 20260509201435 | 13 | 0.0 | 3.2 | 0.00 | 0.00 | 0.00 | 44 | 1017.6 | |
| 20260509200727 | 13 | 0.0 | 1.6 | 0.00 | 0.00 | 0.00 | 44 | 1017.5 | |
| 20260509200242 | 14 | 3.2 | 9.7 | 0.00 | 0.00 | 0.00 | 43 | 1017.6 | |
| 20260509195733 | 14 | 1.6 | 3.2 | 0.00 | 0.00 | 0.00 | 42 | 1017.6 | |
| 20260509195159 | 14 | 0.0 | 3.2 | 0.00 | 0.00 | 0.00 | 41 | 1017.7 | |
| 20260509194521 | 14 | 4.8 | 6.4 | 0.00 | 0.00 | 0.00 | 41 | 1017.6 | |
| 20260509193951 | 14 | 4.8 | 12.9 | 0.00 | 0.00 | 0.00 | 41 | 1017.5 | |
| 20260509193229 | 14 | 6.4 | 11.3 | 0.00 | 0.00 | 0.00 | 41 | 1017.4 | |
| 20260509192729 | 15 | 8.0 | 12.9 | 0.00 | 0.00 | 0.00 | 39 | 1017.4 | |
| 20260509192228 | 15 | 4.8 | 12.9 | 0.00 | 0.00 | 0.00 | 39 | 1017.4 | |
| 20260509191728 | 15 | 3.2 | 9.7 | 0.00 | 0.00 | 0.00 | 39 | 1017.1 | |
| 20260509191221 | 15 | 1.6 | 6.4 | 0.00 | 0.00 | 0.00 | 39 | 1017.1 | |
| 20260509190721 | 15 | 3.2 | 6.4 | 0.00 | 0.00 | 0.00 | 41 | 1017.2 | |
| 20260509190218 | 15 | 1.6 | 6.4 | 0.00 | 0.00 | 0.00 | 41 | 1017.0 | |
| 20260509185718 | 15 | 0.0 | 3.2 | 0.00 | 0.00 | 0.00 | 41 | 1017.2 | |
| 20260509185147 | 15 | 3.2 | 8.0 | 0.00 | 0.00 | 0.00 | 40 | 1017.3 | |
| 20260509184617 | 16 | 3.2 | 6.4 | 0.00 | 0.00 | 0.00 | 39 | 1017.3 | |
| 20260509184031 | 16 | 4.8 | 8.0 | 0.00 | 0.00 | 0.00 | 39 | 1017.1 | |
| 20260509183501 | 16 | 1.6 | 6.4 | 0.00 | 0.00 | 0.00 | 38 | 1017.0 | |
| 20260509182930 | 16 | 3.2 | 6.4 | 0.00 | 0.00 | 0.00 | 38 | 1017.1 | |
| 20260509182359 | 16 | 4.8 | 9.7 | 0.00 | 0.00 | 0.00 | 38 | 1017.0 | |
| 20260509181809 | 16 | 0.0 | 1.6 | 0.00 | 0.00 | 0.00 | 39 | 1016.9 | |
| 20260509181309 | 16 | 3.2 | 6.4 | 0.00 | 0.00 | 0.00 | 39 | 1017.3 | |
| 20260509180735 | 16 | 6.4 | 11.3 | 0.00 | 0.00 | 0.00 | 36 | 1017.2 | |
| 20260509180229 | 17 | 3.2 | 8.0 | 0.00 | 0.00 | 0.00 | 36 | 1017.1 | |
| 20260509175725 | 17 | 3.2 | 6.4 | 0.00 | 0.00 | 0.00 | 35 | 1017.0 | |
| 20260509175219 | 17 | 3.2 | 6.4 | 0.00 | 0.00 | 0.00 | 34 | 1016.9 | |
| 20260509174640 | 17 | 3.2 | 8.0 | 0.00 | 0.00 | 0.00 | 37 | 1016.6 | |
| 20260509174033 | 18 | 3.2 | 9.7 | 0.00 | 0.00 | 0.00 | 37 | 1016.6 | |
| 20260509173503 | 18 | 1.6 | 6.4 | 0.00 | 0.00 | 0.00 | 36 | 1016.7 | |
| 20260509172933 | 19 | 3.2 | 6.4 | 0.00 | 0.00 | 0.00 | 35 | 1016.6 | |
| 20260509172342 | 20 | 3.2 | 8.0 | 0.00 | 0.00 | 0.00 | 34 | 1016.9 | |
| 20260509171826 | 20 | 1.6 | 3.2 | 0.00 | 0.00 | 0.00 | 33 | 1016.7 | |
| 20260509171245 | 20 | 1.6 | 3.2 | 0.00 | 0.00 | 0.00 | 33 | 1016.9 | |
| 20260509170628 | 20 | 1.6 | 4.8 | 0.00 | 0.00 | 0.00 | 33 | 1016.6 | |
| 20260509170044 | 20 | 3.2 | 6.4 | 0.00 | 0.00 | 0.00 | 33 | 1016.8 | |
| 20260509165514 | 20 | 8.0 | 12.9 | 0.00 | 0.00 | 0.00 | 32 | 1016.7 | |
| 20260509164918 | 21 | 6.4 | 16.1 | 0.00 | 0.00 | 0.00 | 32 | 1016.9 | |
| 20260509164348 | 21 | 3.2 | 6.4 | 0.00 | 0.00 | 0.00 | 32 | 1016.9 | |
| 20260509163818 | 21 | 3.2 | 4.8 | 0.00 | 0.00 | 0.00 | 32 | 1016.9 | |
| 20260509163231 | 21 | 12.9 | 17.7 | 0.00 | 0.00 | 0.00 | 32 | 1016.7 | |
| 20260509162731 | 22 | 6.4 | 19.3 | 0.00 | 0.00 | 0.00 | 31 | 1016.8 | |
| 20260509162219 | 22 | 3.2 | 6.4 | 0.00 | 0.00 | 0.00 | 32 | 1016.6 | |
| 20260509161719 | 22 | 6.4 | 11.3 | 0.00 | 0.00 | 0.00 | 32 | 1016.8 | |
| 20260509161219 | 22 | 3.2 | 12.9 | 0.00 | 0.00 | 0.00 | 31 | 1016.6 | |
| 20260509160719 | 22 | 3.2 | 6.4 | 0.00 | 0.00 | 0.00 | 32 | 1016.9 | |
| 20260509160218 | 22 | 1.6 | 6.4 | 0.00 | 0.00 | 0.00 | 32 | 1016.9 | |
| 20260509155717 | 22 | 3.2 | 8.0 | 0.00 | 0.00 | 0.00 | 31 | 1017.0 | |
| 20260509155232 | 22 | 3.2 | 6.4 | 0.00 | 0.00 | 0.00 | 32 | 1017.0 | |
| 20260509154726 | 22 | 6.4 | 9.7 | 0.00 | 0.00 | 0.00 | 32 | 1016.9 | |
| 20260509154225 | 22 | 6.4 | 9.7 | 0.00 | 0.00 | 0.00 | 32 | 1017.1 | |
| 20260509153724 | 22 | 1.6 | 3.2 | 0.00 | 0.00 | 0.00 | 32 | 1017.2 | |
| 20260509153224 | 22 | 6.4 | 12.9 | 0.00 | 0.00 | 0.00 | 31 | 1017.2 | |
| 20260509152723 | 22 | 3.2 | 6.4 | 0.00 | 0.00 | 0.00 | 31 | 1017.1 | |
| 20260509152232 | 22 | 3.2 | 12.9 | 0.00 | 0.00 | 0.00 | 32 | 1017.2 | |
| 20260509151731 | 22 | 3.2 | 12.9 | 0.00 | 0.00 | 0.00 | 33 | 1017.2 | |
| 20260509151231 | 22 | 3.2 | 6.4 | 0.00 | 0.00 | 0.00 | 32 | 1017.2 | |
| 20260509150720 | 22 | 3.2 | 6.4 | 0.00 | 0.00 | 0.00 | 32 | 1017.2 | |
| 20260509150220 | 22 | 3.2 | 6.4 | 0.00 | 0.00 | 0.00 | 32 | 1017.3 | |
| 20260509145718 | 22 | 8.0 | 12.9 | 0.00 | 0.00 | 0.00 | 31 | 1017.1 | |
| 20260509145218 | 22 | 3.2 | 9.7 | 0.00 | 0.00 | 0.00 | 32 | 1017.1 | |
| 20260509144717 | 22 | 1.6 | 4.8 | 0.00 | 0.00 | 0.00 | 31 | 1017.0 | |
| 20260509144233 | 22 | 3.2 | 6.4 | 0.00 | 0.00 | 0.00 | 30 | 1017.2 | |
| 20260509143731 | 23 | 8.0 | 14.5 | 0.00 | 0.00 | 0.00 | 31 | 1017.1 | |
| 20260509143145 | 23 | 3.2 | 8.0 | 0.00 | 0.00 | 0.00 | 31 | 1016.8 | |
| 20260509142615 | 22 | 3.2 | 12.9 | 0.00 | 0.00 | 0.00 | 31 | 1016.8 | |
| 20260509142040 | 23 | 3.2 | 6.4 | 0.00 | 0.00 | 0.00 | 31 | 1016.7 | |
| 20260509141509 | 23 | 3.2 | 4.8 | 0.00 | 0.00 | 0.00 | 31 | 1016.5 | |
| 20260509140917 | 23 | 6.4 | 12.9 | 0.00 | 0.00 | 0.00 | 31 | 1016.8 |